Hourly Weather Ludva

Today, 20 June, Sunday

Time Temperature Precipitation Wind Pressure Humidity
00:00 +20°C° 0 mm 3 mps 761 mmHg 77%
01:00 +19°C° 0 mm 3 mps 761 mmHg 80%
02:00 +19°C° 0 mm 2 mps 761 mmHg 83%
03:00 +19°C° 0 mm 2 mps 761 mmHg 83%
04:00 +19°C° 0 mm 2 mps 760 mmHg 83%
05:00 +20°C° 0 mm 2 mps 760 mmHg 83%
06:00 +21°C° 0 mm 2 mps 760 mmHg 76%
07:00 +24°C° 0 mm 3 mps 760 mmHg 69%
08:00 +26°C° 0 mm 3 mps 760 mmHg 61%
09:00 +27°C° 0 mm 3 mps 760 mmHg 56%
10:00 +29°C° 0 mm 3 mps 760 mmHg 50%
11:00 +30°C° 0 mm 3 mps 760 mmHg 45%
12:00 +31°C° 0 mm 3 mps 760 mmHg 43%
13:00 +31°C° 0 mm 3 mps 760 mmHg 40%
14:00 +33°C° 0 mm 3 mps 759 mmHg 38%
15:00 +33°C° 0 mm 3 mps 759 mmHg 39%
16:00 +33°C° 0 mm 3 mps 759 mmHg 39%
17:00 +33°C° 0 mm 3 mps 759 mmHg 40%
18:00 +30°C° 0 mm 2 mps 759 mmHg 48%
19:00 +29°C° 0 mm 2 mps 759 mmHg 56%
20:00 +27°C° 0 mm 2 mps 759 mmHg 64%
21:00 +26°C° 0 mm 2 mps 759 mmHg 68%
22:00 +25°C° 0 mm 2 mps 759 mmHg 71%
23:00 +24°C° 0 mm 2 mps 759 mmHg 75%

Tomorrow, 21 June, Monday

Time Temperature Precipitation Wind Pressure Humidity
00:00 +23°C° 0.7 mm 2 mps 759 mmHg 80%
01:00 +21°C° 0.7 mm 2 mps 759 mmHg 86%
02:00 +20°C° 0.7 mm 2 mps 759 mmHg 91%
03:00 +21°C° 0.3 mm 2 mps 759 mmHg 91%
04:00 +21°C° 0.3 mm 2 mps 759 mmHg 92%
05:00 +21°C° 0.3 mm 3 mps 759 mmHg 92%
06:00 +24°C° 0 mm 3 mps 759 mmHg 85%
07:00 +25°C° 0 mm 3 mps 759 mmHg 78%
08:00 +27°C° 0 mm 4 mps 759 mmHg 71%
09:00 +28°C° 0 mm 4 mps 759 mmHg 65%
10:00 +30°C° 0 mm 4 mps 759 mmHg 58%
11:00 +32°C° 0 mm 4 mps 759 mmHg 52%
12:00 +32°C° 0 mm 4 mps 759 mmHg 49%
13:00 +33°C° 0 mm 4 mps 759 mmHg 47%
14:00 +34°C° 0 mm 4 mps 759 mmHg 44%
15:00 +33°C° 0 mm 4 mps 758 mmHg 45%
16:00 +33°C° 0 mm 4 mps 758 mmHg 45%
17:00 +33°C° 0 mm 4 mps 758 mmHg 45%
18:00 +31°C° 0 mm 3 mps 758 mmHg 52%
19:00 +29°C° 0 mm 3 mps 758 mmHg 59%
20:00 +27°C° 0 mm 2 mps 758 mmHg 66%
21:00 +26°C° 0 mm 2 mps 758 mmHg 70%
22:00 +25°C° 0 mm 2 mps 758 mmHg 74%
23:00 +24°C° 0 mm 3 mps 758 mmHg 78%

Day after tomorrow, 22 June, Tuesday

Time Temperature Precipitation Wind Pressure Humidity
00:00 +22°C° 0 mm 3 mps 758 mmHg 79%
01:00 +21°C° 0 mm 3 mps 758 mmHg 80%
02:00 +21°C° 0 mm 2 mps 758 mmHg 81%
03:00 +21°C° 0 mm 3 mps 758 mmHg 81%
04:00 +21°C° 0 mm 3 mps 758 mmHg 81%
05:00 +21°C° 0 mm 3 mps 758 mmHg 81%
06:00 +22°C° 0 mm 3 mps 758 mmHg 74%
07:00 +25°C° 0 mm 3 mps 758 mmHg 68%
08:00 +27°C° 0 mm 4 mps 758 mmHg 62%
09:00 +28°C° 0 mm 4 mps 758 mmHg 57%
10:00 +30°C° 0 mm 4 mps 758 mmHg 52%
11:00 +32°C° 0 mm 5 mps 758 mmHg 47%
12:00 +33°C° 0 mm 5 mps 757 mmHg 45%
13:00 +33°C° 0 mm 5 mps 757 mmHg 43%
14:00 +34°C° 0 mm 5 mps 757 mmHg 42%
15:00 +33°C° 0.1 mm 5 mps 757 mmHg 45%
16:00 +33°C° 0.1 mm 5 mps 757 mmHg 48%
17:00 +32°C° 0.1 mm 4 mps 756 mmHg 51%
18:00 +30°C° 0 mm 4 mps 757 mmHg 58%
19:00 +28°C° 0 mm 3 mps 757 mmHg 65%
20:00 +27°C° 0 mm 3 mps 757 mmHg 71%
21:00 +26°C° 0 mm 3 mps 757 mmHg 76%
22:00 +25°C° 0 mm 3 mps 757 mmHg 81%
23:00 +24°C° 0 mm 3 mps 757 mmHg 85%

23 June, Wednesday

Time Temperature Precipitation Wind Pressure Humidity
00:00 +23°C° 0.3 mm 2 mps 758 mmHg 88%
01:00 +23°C° 0.3 mm 2 mps 758 mmHg 91%
02:00 +21°C° 0.3 mm 2 mps 758 mmHg 94%
03:00 +21°C° 0 mm 2 mps 758 mmHg 93%
04:00 +23°C° 0 mm 2 mps 758 mmHg 92%
05:00 +23°C° 0 mm 2 mps 758 mmHg 91%
06:00 +25°C° 0 mm 2 mps 758 mmHg 84%
07:00 +26°C° 0 mm 2 mps 759 mmHg 77%
08:00 +28°C° 0 mm 2 mps 759 mmHg 70%
09:00 +29°C° 0.1 mm 3 mps 759 mmHg 64%
10:00 +30°C° 0.1 mm 3 mps 759 mmHg 58%
11:00 +31°C° 0.1 mm 3 mps 759 mmHg 52%
12:00 +31°C° 0.2 mm 3 mps 759 mmHg 55%
13:00 +30°C° 0.2 mm 2 mps 759 mmHg 57%
14:00 +30°C° 0.2 mm 2 mps 759 mmHg 60%
15:00 +30°C° 0.5 mm 3 mps 759 mmHg 60%
16:00 +30°C° 0.5 mm 3 mps 759 mmHg 61%
17:00 +30°C° 0.5 mm 4 mps 759 mmHg 62%
18:00 +27°C° 1.3 mm 3 mps 759 mmHg 71%
19:00 +25°C° 1.3 mm 2 mps 759 mmHg 80%
20:00 +22°C° 1.3 mm 1 mps 759 mmHg 89%
21:00 +22°C° 0.6 mm 1 mps 759 mmHg 90%
22:00 +22°C° 0.6 mm 1 mps 759 mmHg 91%
23:00 +21°C° 0.6 mm 1 mps 760 mmHg 92%

24 June, Thursday

Time Temperature Precipitation Wind Pressure Humidity
00:00 +21°C° 0 mm 1 mps 759 mmHg 92%
01:00 +19°C° 0 mm 0 mps 759 mmHg 92%
02:00 +19°C° 0 mm 0 mps 759 mmHg 92%
03:00 +19°C° 0.2 mm 0 mps 759 mmHg 92%
04:00 +19°C° 0.2 mm 0 mps 759 mmHg 92%
05:00 +20°C° 0.2 mm 0 mps 759 mmHg 92%
06:00 +21°C° 0.1 mm 0 mps 759 mmHg 87%
07:00 +22°C° 0.1 mm 0 mps 759 mmHg 82%
08:00 +23°C° 0.1 mm 0 mps 759 mmHg 76%
09:00 +25°C° 0 mm 0 mps 759 mmHg 70%
10:00 +28°C° 0 mm 1 mps 759 mmHg 65%
11:00 +29°C° 0 mm 1 mps 758 mmHg 59%
12:00 +29°C° 1.6 mm 2 mps 758 mmHg 64%
13:00 +28°C° 1.6 mm 2 mps 758 mmHg 69%
14:00 +27°C° 1.6 mm 3 mps 758 mmHg 75%
15:00 +26°C° 0.9 mm 3 mps 757 mmHg 79%
16:00 +25°C° 0.9 mm 3 mps 757 mmHg 84%
17:00 +24°C° 0.9 mm 2 mps 756 mmHg 89%
18:00 +23°C° 0.2 mm 2 mps 757 mmHg 91%
19:00 +23°C° 0.2 mm 2 mps 757 mmHg 93%
20:00 +23°C° 0.2 mm 1 mps 757 mmHg 94%
21:00 +22°C° 0 mm 1 mps 757 mmHg 95%
22:00 +21°C° 0 mm 1 mps 757 mmHg 96%
23:00 +21°C° 0 mm 1 mps 757 mmHg 97%

25 June, Friday

Time Temperature Precipitation Wind Pressure Humidity
00:00 +20°C° 0 mm 1 mps 757 mmHg 96%
01:00 +18°C° 0 mm 0 mps 757 mmHg 96%
02:00 +18°C° 0 mm 0 mps 756 mmHg 96%
03:00 +18°C° 0 mm 0 mps 756 mmHg 95%
04:00 +21°C° 0 mm 1 mps 756 mmHg 95%
05:00 +21°C° 0 mm 1 mps 756 mmHg 94%
06:00 +22°C° 0 mm 1 mps 756 mmHg 88%
07:00 +24°C° 0 mm 1 mps 756 mmHg 82%
08:00 +25°C° 0 mm 1 mps 756 mmHg 76%
09:00 +27°C° 0 mm 2 mps 756 mmHg 71%
10:00 +28°C° 0 mm 2 mps 755 mmHg 65%
11:00 +29°C° 0 mm 2 mps 755 mmHg 60%
12:00 +30°C° 0.7 mm 3 mps 755 mmHg 59%
13:00 +30°C° 0.7 mm 4 mps 754 mmHg 57%
14:00 +32°C° 0.7 mm 5 mps 754 mmHg 56%
15:00 +28°C° 1.5 mm 4 mps 753 mmHg 68%
16:00 +26°C° 1.5 mm 3 mps 753 mmHg 80%
17:00 +23°C° 1.5 mm 2 mps 753 mmHg 92%
18:00 +23°C° 1.2 mm 2 mps 753 mmHg 93%
19:00 +21°C° 1.2 mm 3 mps 753 mmHg 94%
20:00 +21°C° 1.2 mm 3 mps 753 mmHg 96%
21:00 +21°C° 0.9 mm 3 mps 752 mmHg 96%
22:00 +21°C° 0.9 mm 3 mps 752 mmHg 97%
23:00 +21°C° 0.9 mm 3 mps 752 mmHg 98%
Show more

We Need Your Consent

Meteoprog and our Service Providers may store and access personal data such as cookies, device identifiers or other similar technologies on your device and process such data to personalise content and ads, as well as provide social media features and to analyse the traffic.

  • Store and/or access information on your device

    Cookies, device identifiers or other information can be stored or accessed on your device for the purposes indicated above.

  • Personalised ads and content, ad and content measurement, audience insights, and products development

    Ads and content can be personalised based on a profile. More data can be added to better personalise ads and content. Ad and content performance can be measured. Insights about the audience who saw the ads and content can be derived. Such data can be used to develop or improve user’s experience, systems and software.

By clicking ‘I Agree’ you will allow the use of indicated cookies, device identifiers, web beacons or other similar technologies. Your settings can be changed in the browser on your device.

For certain purposes, legitimate interests may be relied on, rather than consent. You can read more about this in our Privacy and Cookie Policy.